sat.trackr.live / text

‹ back to catalog

HULIANWANG DIGUI-141

NORAD 67439 · 2026-007E

PAYLOAD ACTIVE UNKNOWN

§ Identity

Operator
Country
PRC
Launch date
2026-01-13
Launch site
WSC
Launch vehicle
Mass (kg)
RCS (m²)

External: N2YO · Heavens-Above · Gunter

§ Orbital elements

Epoch: 2026-09-20T22:13:24.873312Z

Period
108.33 min
Inclination
50.0030°
Eccentricity
0.0000396
Mean motion
13.29330585 rev/d
Perigee alt
1,149.0 km
Apogee alt
1,149.6 km
Semi-major
7,527.4 km
B*
4.1596e-5
RAAN
102.3665°
Arg perigee
29.3398°
Mean anomaly
330.7497°
Rev number
3,352

§ Raw data

HULIANWANG DIGUI-1411 67439U 26007E   26263.92598233 -.00000105  00000+0  41596-4 0  99992 67439  50.0030 102.3665 0000396  29.3398 330.7497 13.29330585 33529

JSON: /api/v1/satellites/67439 · /tle

For live sub-satellite position, see the globe view (requires WebGL).

§ Visibility from observer

Set your observer location to see the next 7 days of passes ≥ 10°. The values pass through the URL so the page stays shareable.

No JS? Fill the form by hand. The geolocation button needs JavaScript.